User: anonymous   Login
Location: Unspecified
(0.0000°N, 0.0000°E)
Time: 00:07:29
(UTC+00:00)
Language:

ONEWEB-0183 - Orbit

View from above orbital plane
View from above orbital plane
View from above satellite
View from above satellite

Ground track
Ground track

The orbit is defined by the following mean orbital elements,

1 48219U          26145.43245558 +.00000000 +00000-0 -36704-3 0 00005
2 48219  87.8942 294.2430 0002020  99.6684 260.4674 13.14501770    02
Epoch (UTC): 25 May 2026 10:22:44
Eccentricity: 0.0002020
inclination: 87.8942°
perigee height: 1204 km
apogee height: 1207 km
right ascension of ascending node: 294.2430°
argument of perigee: 99.6684°
revolutions per day: 13.14501770
mean anomaly at epoch: 260.4674°

The dashed part of the orbit path shows where the satellite is in the earth's shadow,  

DLR